GEFSMW_prec_meanprecacc_162.txt.gz
Total_Precipitation_Accumulation
1.23 1.60 1.74 1.83 2.12 2.29 2.42 2.36 2.47 2.66 2.77 3.01 3.04 3.20 3.53 3.86 4.02 4.19 4.29 4.28 4.20 4.20 4.05 3.95 3.96 3.76 3.59 3.39 3.25 3.14 3.05 2.74 2.49 2.41 2.11 1.69 1.47 1.36 1.29 1.28 1.26 1.20 1.22
1.11 1.54 1.71 1.98 2.16 2.28 2.49 2.57 2.66 2.98 3.42 3.87 4.28 4.62 4.90 4.87 5.00 5.04 4.98 4.77 4.61 4.49 4.29 4.27 4.18 3.93 3.73 3.47 3.25 3.11 3.06 2.81 2.61 2.59 2.50 1.99 1.61 1.28 1.02 1.04 1.09 1.09 1.15
1.19 1.40 1.62 1.89 2.14 2.32 2.53 2.70 3.03 3.59 4.37 4.81 5.14 5.62 5.89 5.67 5.45 5.20 5.05 4.90 4.85 4.84 4.64 4.52 4.26 4.03 3.75 3.47 3.18 2.98 2.91 2.81 2.69 2.53 2.60 2.29 1.87 1.46 1.15 0.98 0.93 0.99 1.11
1.24 1.42 1.61 1.89 2.19 2.51 2.63 2.79 3.33 4.03 4.66 5.13 5.67 6.21 6.44 6.47 6.25 5.71 5.24 4.76 4.37 4.16 4.05 3.96 3.78 3.56 3.31 3.13 2.89 2.69 2.58 2.68 2.58 2.45 2.28 2.12 1.88 1.66 1.39 1.12 0.99 0.98 1.03
1.21 1.38 1.59 1.77 1.93 2.21 2.63 2.95 3.50 4.14 4.76 5.42 6.09 6.51 6.74 6.72 6.29 5.47 4.71 4.20 3.82 3.49 3.25 3.12 3.01 2.87 2.74 2.58 2.51 2.45 2.34 2.30 2.23 2.11 2.03 1.92 1.81 1.60 1.42 1.24 1.07 1.04 1.05
1.11 1.21 1.42 1.55 1.82 2.08 2.38 2.86 3.18 3.79 4.45 5.01 5.51 5.66 5.82 5.77 5.34 4.86 4.32 3.90 3.36 2.84 2.48 2.28 2.17 2.07 1.99 1.99 2.02 2.04 2.00 1.95 1.93 1.90 1.82 1.75 1.72 1.61 1.51 1.34 1.19 1.19 1.13
1.10 1.31 1.56 1.50 1.72 1.98 2.30 2.71 3.10 3.47 3.96 4.43 4.87 5.10 5.25 5.10 4.60 4.13 3.70 3.22 2.71 2.28 1.93 1.75 1.69 1.63 1.58 1.53 1.57 1.60 1.60 1.60 1.62 1.61 1.58 1.59 1.58 1.56 1.53 1.58 1.49 1.27 1.08
1.12 1.17 1.33 1.40 1.62 1.82 2.06 2.40 2.72 3.05 3.22 3.39 3.72 3.96 4.13 4.01 3.67 3.18 2.70 2.37 2.08 1.81 1.58 1.41 1.33 1.22 1.12 1.08 1.14 1.19 1.22 1.24 1.33 1.39 1.45 1.45 1.43 1.42 1.40 1.47 1.55 1.52 1.36
0.99 1.05 1.16 1.28 1.49 1.75 1.99 2.23 2.36 2.52 2.67 2.77 2.82 2.86 2.98 2.90 2.67 2.39 2.10 1.80 1.52 1.29 1.14 1.01 0.92 0.88 0.83 0.82 0.86 0.92 0.94 0.99 1.07 1.15 1.26 1.34 1.41 1.46 1.42 1.44 1.48 1.55 1.54
1.03 1.05 1.11 1.19 1.30 1.38 1.64 1.89 1.96 2.03 2.09 2.10 2.13 2.12 2.12 2.05 1.97 1.82 1.63 1.36 1.17 1.00 0.88 0.76 0.67 0.66 0.68 0.69 0.67 0.72 0.75 0.77 0.82 0.90 1.00 1.11 1.22 1.37 1.44 1.52 1.54 1.52 1.52
1.18 1.13 1.13 1.11 1.17 1.21 1.31 1.52 1.70 1.69 1.71 1.76 1.73 1.64 1.67 1.62 1.57 1.48 1.38 1.22 1.09 0.96 0.83 0.74 0.70 0.66 0.63 0.60 0.62 0.63 0.65 0.71 0.73 0.72 0.78 0.87 0.95 1.08 1.18 1.28 1.33 1.40 1.41
1.14 1.07 1.03 0.96 0.97 1.02 1.07 1.19 1.35 1.38 1.38 1.38 1.38 1.42 1.38 1.36 1.31 1.21 1.10 0.96 0.86 0.76 0.68 0.62 0.62 0.60 0.57 0.57 0.57 0.55 0.53 0.54 0.56 0.57 0.62 0.69 0.72 0.81 0.85 0.94 1.03 1.10 1.17
1.27 1.15 1.02 0.92 0.90 0.94 0.97 1.02 1.12 1.20 1.23 1.21 1.22 1.30 1.24 1.20 1.10 1.00 0.96 0.85 0.72 0.65 0.62 0.58 0.55 0.53 0.52 0.49 0.48 0.48 0.44 0.40 0.41 0.44 0.46 0.51 0.54 0.59 0.60 0.64 0.70 0.79 0.91
1.36 1.18 1.08 1.00 0.96 0.99 0.98 0.98 1.01 0.98 1.01 1.07 1.13 1.17 1.12 1.06 1.01 0.88 0.77 0.70 0.63 0.61 0.60 0.54 0.48 0.41 0.37 0.35 0.38 0.42 0.37 0.32 0.32 0.34 0.37 0.41 0.43 0.45 0.47 0.49 0.54 0.62 0.78
1.26 1.13 1.09 1.12 1.07 1.01 0.97 0.94 0.98 0.94 0.94 0.99 1.01 0.99 0.96 0.94 0.93 0.85 0.75 0.66 0.57 0.52 0.49 0.44 0.41 0.36 0.32 0.32 0.33 0.36 0.34 0.31 0.30 0.28 0.28 0.31 0.36 0.40 0.40 0.40 0.48 0.58 0.73
1.17 1.09 1.07 1.13 1.08 1.01 0.92 0.85 0.90 0.92 0.94 0.95 0.93 0.92 0.92 0.92 0.87 0.81 0.77 0.68 0.58 0.49 0.45 0.39 0.37 0.35 0.30 0.30 0.30 0.29 0.33 0.35 0.35 0.31 0.27 0.27 0.27 0.30 0.33 0.36 0.43 0.52 0.60
1.33 1.33 1.35 1.34 1.24 1.10 0.99 0.93 0.94 0.96 0.98 1.01 0.95 0.94 0.93 0.87 0.80 0.67 0.64 0.63 0.59 0.48 0.42 0.37 0.35 0.37 0.34 0.30 0.27 0.28 0.34 0.38 0.39 0.36 0.34 0.28 0.24 0.31 0.34 0.35 0.38 0.42 0.44
1.61 1.62 1.58 1.44 1.31 1.20 1.13 1.06 0.99 1.02 1.07 1.02 0.94 0.85 0.82 0.78 0.72 0.68 0.61 0.56 0.53 0.48 0.45 0.40 0.37 0.36 0.33 0.30 0.28 0.28 0.32 0.39 0.38 0.36 0.37 0.38 0.39 0.35 0.35 0.31 0.33 0.38 0.44
1.60 1.51 1.43 1.34 1.27 1.18 1.12 1.03 0.98 0.94 0.93 0.88 0.81 0.72 0.70 0.74 0.74 0.68 0.63 0.58 0.52 0.47 0.41 0.39 0.38 0.39 0.35 0.30 0.28 0.29 0.32 0.36 0.31 0.28 0.31 0.33 0.35 0.34 0.35 0.35 0.38 0.40 0.45
1.27 1.28 1.25 1.18 1.13 1.05 0.95 0.88 0.87 0.83 0.79 0.75 0.73 0.64 0.61 0.65 0.72 0.63 0.59 0.54 0.49 0.45 0.38 0.37 0.39 0.40 0.40 0.33 0.29 0.30 0.28 0.31 0.27 0.27 0.28 0.29 0.26 0.25 0.26 0.30 0.41 0.50 0.48
1.05 1.08 1.13 1.13 1.02 0.86 0.79 0.80 0.78 0.74 0.60 0.57 0.62 0.62 0.59 0.58 0.59 0.57 0.57 0.54 0.49 0.48 0.46 0.44 0.45 0.43 0.39 0.35 0.30 0.30 0.28 0.28 0.27 0.28 0.29 0.29 0.23 0.20 0.21 0.28 0.39 0.45 0.43
0.90 0.89 0.92 0.90 0.82 0.76 0.76 0.77 0.73 0.61 0.51 0.54 0.62 0.63 0.59 0.49 0.49 0.57 0.59 0.54 0.50 0.47 0.47 0.47 0.48 0.43 0.40 0.35 0.32 0.32 0.30 0.27 0.26 0.28 0.27 0.26 0.24 0.21 0.22 0.25 0.31 0.33 0.41
0.71 0.73 0.71 0.73 0.76 0.77 0.79 0.76 0.68 0.57 0.54 0.56 0.59 0.59 0.55 0.51 0.51 0.55 0.57 0.56 0.52 0.44 0.42 0.44 0.47 0.42 0.36 0.31 0.27 0.28 0.26 0.24 0.25 0.27 0.25 0.25 0.26 0.29 0.35 0.36 0.34 0.40 0.55
0.60 0.62 0.64 0.64 0.68 0.68 0.67 0.63 0.54 0.53 0.57 0.60 0.58 0.57 0.58 0.57 0.52 0.47 0.45 0.46 0.45 0.40 0.38 0.39 0.39 0.35 0.32 0.25 0.19 0.21 0.22 0.22 0.24 0.26 0.30 0.38 0.43 0.45 0.47 0.51 0.55 0.57 0.59
0.61 0.62 0.63 0.63 0.59 0.57 0.53 0.49 0.48 0.50 0.56 0.56 0.52 0.52 0.54 0.53 0.50 0.41 0.35 0.33 0.28 0.21 0.22 0.24 0.24 0.25 0.22 0.17 0.17 0.20 0.22 0.20 0.21 0.24 0.35 0.52 0.58 0.58 0.56 0.55 0.54 0.56 0.54
0.55 0.58 0.54 0.53 0.52 0.47 0.45 0.43 0.42 0.42 0.50 0.52 0.46 0.42 0.42 0.41 0.37 0.34 0.30 0.22 0.15 0.12 0.09 0.09 0.10 0.11 0.13 0.11 0.09 0.12 0.17 0.17 0.21 0.28 0.47 0.56 0.60 0.62 0.56 0.51 0.48 0.46 0.46

GEFSMW_prec_meanprecacc_168.txt.gz
Total_Precipitation_Accumulation
1.30 1.68 1.83 1.91 2.20 2.38 2.52 2.45 2.57 2.79 2.96 3.25 3.23 3.36 3.67 4.00 4.16 4.36 4.45 4.40 4.30 4.29 4.15 4.04 4.04 3.85 3.67 3.46 3.32 3.20 3.11 2.80 2.55 2.46 2.15 1.71 1.48 1.37 1.29 1.28 1.26 1.21 1.22
1.21 1.62 1.79 2.05 2.23 2.36 2.56 2.65 2.73 3.07 3.54 4.01 4.43 4.75 5.03 5.00 5.13 5.17 5.11 4.90 4.74 4.61 4.42 4.40 4.29 4.03 3.82 3.57 3.35 3.21 3.16 2.92 2.70 2.65 2.54 2.02 1.63 1.29 1.03 1.05 1.09 1.09 1.16
1.29 1.48 1.69 1.95 2.18 2.36 2.58 2.76 3.08 3.65 4.43 4.88 5.26 5.76 6.06 5.84 5.62 5.35 5.22 5.08 5.02 5.00 4.81 4.67 4.37 4.11 3.81 3.52 3.25 3.05 2.98 2.90 2.78 2.59 2.65 2.32 1.89 1.47 1.16 0.99 0.94 1.00 1.11
1.31 1.48 1.66 1.92 2.22 2.55 2.67 2.85 3.38 4.08 4.70 5.19 5.76 6.30 6.56 6.63 6.46 5.92 5.42 4.96 4.57 4.33 4.21 4.12 3.90 3.65 3.38 3.17 2.93 2.73 2.63 2.72 2.63 2.50 2.32 2.16 1.91 1.68 1.40 1.12 0.99 0.98 1.03
1.25 1.42 1.62 1.79 1.94 2.23 2.67 3.01 3.56 4.21 4.82 5.49 6.17 6.60 6.85 6.86 6.47 5.66 4.89 4.39 4.03 3.65 3.38 3.23 3.12 2.96 2.80 2.63 2.55 2.49 2.39 2.35 2.28 2.17 2.08 1.99 1.87 1.64 1.44 1.25 1.08 1.04 1.05
1.15 1.23 1.43 1.56 1.84 2.13 2.45 2.95 3.27 3.86 4.53 5.09 5.61 5.76 5.92 5.89 5.49 5.03 4.51 4.08 3.54 2.99 2.60 2.38 2.27 2.16 2.06 2.05 2.08 2.08 2.04 2.01 1.99 1.97 1.89 1.81 1.79 1.66 1.55 1.36 1.21 1.20 1.14
1.12 1.32 1.58 1.53 1.77 2.05 2.39 2.79 3.17 3.53 4.01 4.50 4.95 5.20 5.36 5.23 4.76 4.30 3.86 3.38 2.87 2.41 2.03 1.83 1.76 1.69 1.65 1.61 1.64 1.66 1.65 1.65 1.67 1.67 1.63 1.64 1.64 1.60 1.57 1.62 1.52 1.29 1.08
1.15 1.20 1.38 1.46 1.69 1.89 2.13 2.45 2.77 3.10 3.28 3.45 3.81 4.08 4.26 4.14 3.81 3.33 2.85 2.52 2.22 1.92 1.67 1.48 1.40 1.29 1.19 1.17 1.22 1.26 1.29 1.29 1.37 1.43 1.49 1.49 1.47 1.45 1.43 1.49 1.57 1.54 1.37
1.02 1.09 1.22 1.35 1.56 1.82 2.06 2.30 2.42 2.57 2.72 2.81 2.88 2.93 3.06 2.98 2.76 2.49 2.21 1.92 1.62 1.37 1.21 1.08 0.99 0.94 0.88 0.89 0.95 1.00 1.01 1.04 1.12 1.20 1.30 1.38 1.44 1.48 1.44 1.47 1.51 1.58 1.57
1.06 1.08 1.15 1.28 1.39 1.46 1.72 1.96 2.04 2.10 2.14 2.15 2.17 2.17 2.18 2.11 2.04 1.90 1.74 1.47 1.26 1.08 0.97 0.82 0.73 0.71 0.72 0.73 0.72 0.77 0.81 0.82 0.87 0.95 1.04 1.16 1.26 1.40 1.47 1.55 1.57 1.57 1.56
1.21 1.15 1.16 1.17 1.26 1.31 1.42 1.61 1.78 1.77 1.80 1.85 1.81 1.71 1.73 1.69 1.65 1.56 1.48 1.33 1.20 1.05 0.93 0.83 0.77 0.72 0.67 0.64 0.66 0.66 0.69 0.75 0.78 0.77 0.83 0.93 0.99 1.12 1.22 1.30 1.35 1.43 1.45
1.16 1.10 1.06 1.00 1.04 1.12 1.19 1.29 1.43 1.45 1.46 1.47 1.49 1.54 1.54 1.49 1.41 1.29 1.17 1.05 0.96 0.88 0.80 0.72 0.71 0.68 0.64 0.62 0.62 0.60 0.57 0.57 0.59 0.62 0.68 0.74 0.77 0.86 0.90 0.97 1.06 1.13 1.20
1.29 1.18 1.06 0.97 0.99 1.07 1.08 1.12 1.21 1.29 1.31 1.28 1.28 1.37 1.33 1.28 1.17 1.07 1.02 0.92 0.80 0.75 0.74 0.68 0.63 0.59 0.57 0.54 0.52 0.51 0.47 0.43 0.44 0.46 0.50 0.56 0.60 0.62 0.62 0.66 0.72 0.81 0.93
1.39 1.21 1.12 1.05 1.04 1.12 1.09 1.07 1.11 1.14 1.14 1.15 1.19 1.22 1.16 1.11 1.06 0.94 0.82 0.75 0.69 0.69 0.69 0.61 0.53 0.46 0.42 0.38 0.40 0.44 0.40 0.35 0.34 0.36 0.39 0.44 0.46 0.47 0.48 0.50 0.55 0.63 0.79
1.28 1.15 1.11 1.15 1.12 1.06 1.04 1.02 1.07 1.07 1.12 1.13 1.10 1.06 1.01 0.99 0.97 0.89 0.80 0.71 0.63 0.59 0.57 0.50 0.47 0.42 0.37 0.34 0.35 0.38 0.36 0.34 0.31 0.29 0.29 0.32 0.37 0.41 0.41 0.41 0.48 0.59 0.74
1.19 1.11 1.09 1.15 1.10 1.04 1.00 0.94 0.99 1.03 1.08 1.10 1.05 1.00 0.97 0.97 0.91 0.86 0.81 0.73 0.62 0.55 0.51 0.46 0.43 0.40 0.33 0.33 0.33 0.31 0.35 0.37 0.36 0.32 0.28 0.27 0.28 0.31 0.34 0.37 0.44 0.53 0.61
1.36 1.35 1.38 1.36 1.25 1.12 1.03 1.00 1.02 1.05 1.08 1.12 1.05 1.02 0.99 0.92 0.84 0.72 0.67 0.67 0.62 0.52 0.48 0.44 0.42 0.42 0.38 0.33 0.29 0.30 0.36 0.40 0.40 0.37 0.35 0.29 0.25 0.32 0.35 0.36 0.39 0.44 0.46
1.63 1.64 1.60 1.46 1.33 1.21 1.15 1.09 1.05 1.08 1.14 1.09 1.00 0.91 0.88 0.83 0.76 0.71 0.64 0.59 0.57 0.53 0.51 0.49 0.45 0.42 0.36 0.32 0.30 0.30 0.33 0.40 0.39 0.37 0.37 0.39 0.39 0.36 0.36 0.33 0.35 0.40 0.45
1.61 1.52 1.43 1.35 1.28 1.19 1.13 1.05 1.00 0.98 0.99 0.94 0.86 0.76 0.73 0.79 0.78 0.71 0.66 0.60 0.56 0.52 0.47 0.47 0.44 0.44 0.38 0.33 0.30 0.31 0.32 0.36 0.32 0.29 0.32 0.33 0.36 0.35 0.36 0.36 0.38 0.40 0.45
1.27 1.29 1.26 1.19 1.14 1.06 0.96 0.89 0.90 0.88 0.85 0.82 0.78 0.68 0.64 0.69 0.75 0.67 0.61 0.56 0.52 0.49 0.42 0.41 0.44 0.45 0.43 0.35 0.30 0.31 0.29 0.31 0.27 0.27 0.29 0.30 0.27 0.26 0.26 0.30 0.41 0.50 0.48
1.06 1.09 1.14 1.13 1.02 0.87 0.80 0.82 0.81 0.78 0.66 0.65 0.69 0.69 0.65 0.63 0.62 0.62 0.62 0.57 0.51 0.50 0.48 0.47 0.47 0.46 0.42 0.37 0.31 0.31 0.29 0.29 0.28 0.29 0.30 0.30 0.23 0.20 0.22 0.28 0.39 0.45 0.43
0.91 0.90 0.92 0.91 0.83 0.77 0.78 0.80 0.77 0.66 0.59 0.64 0.71 0.70 0.65 0.54 0.53 0.61 0.64 0.58 0.51 0.48 0.48 0.50 0.50 0.45 0.43 0.37 0.34 0.33 0.31 0.28 0.27 0.28 0.27 0.26 0.24 0.21 0.23 0.25 0.31 0.34 0.42
0.73 0.74 0.72 0.74 0.78 0.80 0.81 0.79 0.72 0.62 0.63 0.67 0.68 0.66 0.61 0.56 0.55 0.58 0.61 0.58 0.54 0.45 0.43 0.46 0.49 0.44 0.38 0.32 0.28 0.29 0.27 0.26 0.26 0.27 0.25 0.25 0.27 0.29 0.35 0.37 0.35 0.41 0.56
0.61 0.63 0.64 0.66 0.71 0.71 0.68 0.64 0.56 0.55 0.62 0.67 0.63 0.62 0.62 0.61 0.55 0.50 0.48 0.48 0.46 0.41 0.39 0.40 0.40 0.37 0.33 0.26 0.20 0.22 0.23 0.24 0.25 0.27 0.30 0.38 0.43 0.45 0.48 0.51 0.56 0.58 0.60
0.61 0.63 0.64 0.64 0.62 0.60 0.55 0.51 0.49 0.53 0.60 0.60 0.55 0.55 0.57 0.56 0.51 0.43 0.37 0.35 0.29 0.22 0.23 0.24 0.24 0.25 0.23 0.18 0.19 0.21 0.23 0.21 0.22 0.25 0.36 0.52 0.58 0.58 0.57 0.55 0.55 0.56 0.55
0.56 0.58 0.55 0.56 0.55 0.50 0.48 0.47 0.45 0.46 0.54 0.55 0.49 0.45 0.45 0.43 0.38 0.35 0.31 0.24 0.16 0.13 0.10 0.10 0.11 0.12 0.14 0.12 0.10 0.14 0.18 0.18 0.22 0.29 0.48 0.57 0.60 0.62 0.56 0.52 0.48 0.47 0.47

GEFSMW_prec_meanprecacc_174.txt.gz
Total_Precipitation_Accumulation
1.34 1.74 1.90 2.01 2.28 2.45 2.59 2.49 2.61 2.84 3.02 3.32 3.31 3.45 3.79 4.11 4.25 4.44 4.52 4.49 4.40 4.37 4.22 4.12 4.14 3.95 3.77 3.57 3.43 3.30 3.19 2.88 2.61 2.53 2.20 1.75 1.51 1.40 1.31 1.30 1.28 1.23 1.25
1.23 1.65 1.84 2.14 2.33 2.44 2.64 2.71 2.79 3.12 3.60 4.08 4.50 4.84 5.13 5.11 5.24 5.27 5.21 5.01 4.85 4.73 4.53 4.48 4.36 4.11 3.91 3.66 3.43 3.29 3.24 2.99 2.78 2.73 2.63 2.08 1.68 1.33 1.05 1.07 1.10 1.11 1.17
1.31 1.50 1.71 1.99 2.23 2.41 2.64 2.83 3.14 3.72 4.52 5.00 5.38 5.86 6.15 5.91 5.68 5.45 5.34 5.24 5.17 5.12 4.93 4.80 4.48 4.23 3.93 3.61 3.32 3.13 3.06 2.98 2.88 2.70 2.77 2.42 1.95 1.53 1.19 1.01 0.96 1.01 1.13
1.32 1.49 1.68 1.95 2.24 2.57 2.71 2.91 3.44 4.14 4.77 5.28 5.86 6.40 6.64 6.71 6.54 6.02 5.52 5.09 4.75 4.52 4.39 4.30 4.07 3.79 3.49 3.26 3.01 2.80 2.70 2.81 2.72 2.60 2.42 2.25 1.99 1.75 1.45 1.15 1.01 1.00 1.04
1.27 1.44 1.64 1.81 1.96 2.24 2.68 3.04 3.60 4.24 4.87 5.54 6.25 6.68 6.91 6.93 6.55 5.77 5.01 4.50 4.14 3.80 3.55 3.42 3.30 3.11 2.90 2.71 2.62 2.57 2.46 2.42 2.36 2.25 2.17 2.08 1.95 1.71 1.50 1.29 1.10 1.05 1.06
1.16 1.24 1.45 1.58 1.86 2.14 2.46 2.97 3.29 3.89 4.57 5.12 5.64 5.80 5.97 5.95 5.57 5.13 4.65 4.23 3.68 3.15 2.76 2.55 2.44 2.32 2.20 2.15 2.15 2.15 2.11 2.08 2.08 2.06 1.98 1.90 1.88 1.75 1.62 1.42 1.25 1.22 1.15
1.14 1.34 1.59 1.54 1.79 2.07 2.41 2.82 3.20 3.56 4.03 4.52 4.98 5.22 5.40 5.29 4.83 4.39 3.95 3.50 3.00 2.55 2.19 1.98 1.91 1.84 1.78 1.72 1.74 1.76 1.73 1.73 1.77 1.78 1.73 1.73 1.71 1.67 1.64 1.68 1.58 1.32 1.10
1.16 1.22 1.39 1.48 1.72 1.91 2.15 2.49 2.80 3.13 3.31 3.48 3.84 4.10 4.30 4.19 3.86 3.38 2.91 2.60 2.34 2.06 1.82 1.66 1.58 1.46 1.34 1.29 1.32 1.36 1.38 1.38 1.47 1.53 1.60 1.59 1.55 1.52 1.49 1.55 1.63 1.58 1.40
1.03 1.11 1.24 1.37 1.58 1.84 2.09 2.34 2.46 2.62 2.76 2.87 2.93 2.97 3.09 3.02 2.80 2.54 2.26 1.98 1.72 1.51 1.36 1.23 1.13 1.07 1.01 1.00 1.05 1.09 1.06 1.10 1.19 1.28 1.40 1.48 1.53 1.55 1.50 1.52 1.56 1.64 1.61
1.07 1.09 1.17 1.30 1.40 1.48 1.75 2.00 2.09 2.18 2.26 2.28 2.27 2.22 2.21 2.14 2.08 1.94 1.79 1.55 1.37 1.20 1.08 0.95 0.86 0.82 0.81 0.81 0.79 0.83 0.86 0.87 0.92 1.03 1.15 1.26 1.36 1.50 1.54 1.60 1.63 1.63 1.63
1.22 1.17 1.19 1.20 1.28 1.34 1.45 1.67 1.87 1.87 1.92 2.00 1.93 1.77 1.76 1.72 1.68 1.62 1.56 1.45 1.34 1.18 1.05 0.92 0.87 0.82 0.77 0.72 0.73 0.71 0.73 0.79 0.82 0.81 0.90 1.03 1.11 1.23 1.31 1.38 1.42 1.51 1.54
1.17 1.11 1.07 1.02 1.06 1.16 1.25 1.38 1.55 1.57 1.56 1.60 1.62 1.63 1.61 1.56 1.45 1.34 1.24 1.14 1.04 0.93 0.87 0.80 0.79 0.76 0.71 0.69 0.68 0.64 0.61 0.61 0.64 0.67 0.74 0.82 0.87 0.97 1.00 1.07 1.15 1.22 1.28
1.30 1.19 1.07 0.98 1.01 1.10 1.14 1.20 1.31 1.42 1.43 1.40 1.39 1.46 1.41 1.34 1.20 1.10 1.07 1.00 0.91 0.86 0.83 0.77 0.71 0.67 0.64 0.59 0.56 0.54 0.50 0.47 0.48 0.53 0.58 0.64 0.69 0.72 0.72 0.76 0.80 0.88 0.99
1.41 1.23 1.14 1.06 1.06 1.13 1.12 1.12 1.17 1.23 1.27 1.31 1.34 1.31 1.23 1.17 1.11 0.97 0.85 0.79 0.75 0.81 0.82 0.70 0.60 0.52 0.48 0.43 0.44 0.47 0.43 0.38 0.38 0.40 0.45 0.49 0.50 0.52 0.54 0.56 0.60 0.68 0.84
1.30 1.16 1.13 1.17 1.13 1.08 1.06 1.06 1.12 1.13 1.21 1.26 1.25 1.18 1.10 1.07 1.03 0.94 0.85 0.75 0.68 0.66 0.66 0.60 0.54 0.47 0.42 0.38 0.39 0.40 0.39 0.36 0.34 0.32 0.33 0.36 0.40 0.43 0.43 0.43 0.51 0.63 0.79
1.21 1.13 1.11 1.17 1.13 1.07 1.02 0.98 1.04 1.07 1.13 1.17 1.14 1.09 1.03 1.02 0.96 0.91 0.86 0.77 0.67 0.62 0.60 0.56 0.53 0.48 0.38 0.37 0.36 0.34 0.38 0.39 0.40 0.35 0.31 0.30 0.30 0.34 0.36 0.39 0.45 0.55 0.64
1.40 1.40 1.42 1.39 1.27 1.14 1.05 1.02 1.06 1.09 1.12 1.16 1.10 1.08 1.04 0.97 0.91 0.77 0.72 0.71 0.67 0.57 0.53 0.49 0.47 0.47 0.42 0.37 0.31 0.32 0.38 0.42 0.43 0.40 0.37 0.31 0.27 0.34 0.36 0.37 0.41 0.45 0.48
1.68 1.69 1.63 1.48 1.35 1.23 1.16 1.11 1.06 1.11 1.17 1.12 1.04 0.95 0.93 0.88 0.81 0.76 0.68 0.63 0.61 0.57 0.55 0.54 0.49 0.45 0.40 0.35 0.31 0.31 0.34 0.43 0.42 0.39 0.39 0.40 0.41 0.38 0.38 0.35 0.37 0.42 0.47
1.64 1.54 1.46 1.38 1.30 1.20 1.14 1.05 1.01 0.99 1.00 0.96 0.88 0.79 0.77 0.84 0.83 0.76 0.71 0.64 0.60 0.57 0.53 0.52 0.47 0.46 0.41 0.36 0.32 0.32 0.34 0.39 0.34 0.31 0.33 0.34 0.37 0.36 0.37 0.37 0.41 0.43 0.47
1.30 1.30 1.27 1.20 1.14 1.06 0.96 0.90 0.91 0.90 0.87 0.85 0.81 0.70 0.67 0.73 0.79 0.73 0.67 0.59 0.55 0.53 0.46 0.45 0.46 0.47 0.45 0.36 0.31 0.32 0.31 0.34 0.30 0.30 0.30 0.31 0.28 0.26 0.27 0.31 0.43 0.53 0.50
1.08 1.10 1.14 1.14 1.02 0.87 0.81 0.83 0.83 0.81 0.69 0.69 0.73 0.72 0.68 0.66 0.65 0.66 0.66 0.60 0.54 0.53 0.51 0.50 0.50 0.48 0.44 0.38 0.33 0.33 0.31 0.31 0.31 0.32 0.32 0.32 0.25 0.21 0.22 0.29 0.40 0.45 0.43
0.93 0.92 0.93 0.91 0.83 0.78 0.79 0.81 0.78 0.69 0.63 0.69 0.75 0.73 0.68 0.57 0.57 0.66 0.68 0.61 0.55 0.51 0.50 0.52 0.53 0.48 0.45 0.39 0.36 0.35 0.33 0.31 0.30 0.32 0.30 0.29 0.26 0.22 0.23 0.26 0.32 0.34 0.42
0.75 0.75 0.72 0.75 0.79 0.81 0.82 0.80 0.74 0.64 0.66 0.70 0.72 0.70 0.65 0.60 0.60 0.64 0.66 0.63 0.57 0.48 0.45 0.48 0.51 0.46 0.40 0.35 0.31 0.31 0.29 0.28 0.28 0.29 0.27 0.26 0.28 0.29 0.36 0.37 0.35 0.41 0.57
0.63 0.63 0.65 0.66 0.72 0.72 0.69 0.66 0.58 0.58 0.66 0.70 0.67 0.65 0.67 0.67 0.61 0.57 0.54 0.51 0.48 0.43 0.41 0.42 0.42 0.38 0.35 0.28 0.22 0.24 0.25 0.25 0.27 0.29 0.32 0.39 0.44 0.45 0.48 0.52 0.56 0.58 0.61
0.62 0.64 0.65 0.65 0.63 0.61 0.57 0.54 0.54 0.59 0.65 0.64 0.59 0.59 0.63 0.62 0.57 0.48 0.41 0.37 0.31 0.23 0.24 0.26 0.26 0.27 0.25 0.20 0.20 0.23 0.24 0.22 0.24 0.26 0.38 0.54 0.59 0.59 0.58 0.56 0.56 0.57 0.56
0.57 0.59 0.56 0.57 0.56 0.52 0.51 0.51 0.50 0.50 0.57 0.57 0.52 0.49 0.50 0.49 0.43 0.39 0.34 0.26 0.18 0.14 0.11 0.11 0.12 0.13 0.16 0.14 0.12 0.15 0.20 0.20 0.23 0.31 0.50 0.59 0.61 0.63 0.57 0.52 0.49 0.47 0.48

GEFSMW_prec_meanprecacc_180.txt.gz
Total_Precipitation_Accumulation
1.34 1.75 1.92 2.04 2.33 2.49 2.64 2.58 2.70 2.94 3.13 3.46 3.41 3.54 3.90 4.25 4.42 4.61 4.63 4.58 4.48 4.47 4.33 4.23 4.26 4.09 3.94 3.73 3.58 3.45 3.33 3.01 2.76 2.66 2.32 1.85 1.60 1.47 1.36 1.35 1.33 1.29 1.33
1.23 1.66 1.87 2.19 2.39 2.49 2.71 2.81 2.89 3.24 3.71 4.23 4.67 5.01 5.36 5.37 5.50 5.49 5.39 5.13 4.96 4.82 4.62 4.60 4.47 4.22 4.04 3.80 3.57 3.44 3.38 3.10 2.91 2.86 2.77 2.20 1.77 1.39 1.09 1.11 1.15 1.16 1.23
1.32 1.52 1.75 2.02 2.27 2.48 2.71 2.90 3.22 3.79 4.60 5.09 5.48 5.97 6.29 6.07 5.86 5.60 5.48 5.36 5.28 5.20 5.01 4.89 4.57 4.31 4.04 3.74 3.45 3.27 3.20 3.11 3.00 2.82 2.90 2.53 2.04 1.60 1.25 1.06 0.99 1.06 1.18
1.33 1.50 1.69 1.96 2.27 2.61 2.74 2.94 3.49 4.18 4.83 5.34 5.93 6.48 6.72 6.78 6.62 6.10 5.62 5.19 4.85 4.60 4.45 4.37 4.16 3.90 3.60 3.39 3.14 2.96 2.86 2.95 2.84 2.72 2.54 2.35 2.08 1.85 1.53 1.20 1.05 1.03 1.08
1.28 1.45 1.65 1.82 1.97 2.26 2.70 3.05 3.63 4.28 4.91 5.59 6.30 6.74 6.97 6.99 6.61 5.84 5.09 4.58 4.23 3.87 3.61 3.48 3.37 3.19 2.99 2.80 2.72 2.69 2.59 2.55 2.47 2.34 2.26 2.18 2.06 1.81 1.59 1.36 1.15 1.10 1.10
1.17 1.25 1.46 1.59 1.88 2.15 2.48 2.98 3.32 3.92 4.60 5.16 5.68 5.85 6.03 6.01 5.64 5.20 4.72 4.30 3.74 3.21 2.83 2.63 2.52 2.41 2.29 2.26 2.26 2.26 2.23 2.20 2.18 2.15 2.06 1.99 1.96 1.83 1.71 1.49 1.31 1.28 1.20
1.14 1.35 1.61 1.56 1.82 2.10 2.43 2.84 3.24 3.59 4.07 4.56 5.02 5.27 5.46 5.37 4.91 4.46 4.03 3.57 3.06 2.62 2.27 2.07 2.01 1.95 1.90 1.87 1.91 1.93 1.89 1.86 1.89 1.89 1.84 1.83 1.80 1.74 1.71 1.75 1.64 1.39 1.16
1.18 1.25 1.41 1.50 1.75 1.96 2.20 2.54 2.87 3.20 3.38 3.57 3.93 4.20 4.41 4.30 3.96 3.47 2.99 2.68 2.41 2.13 1.91 1.75 1.67 1.56 1.46 1.43 1.51 1.57 1.62 1.57 1.62 1.66 1.72 1.70 1.64 1.58 1.54 1.60 1.68 1.64 1.45
1.05 1.13 1.26 1.40 1.60 1.89 2.22 2.46 2.56 2.71 2.87 3.01 3.08 3.12 3.25 3.18 2.95 2.66 2.35 2.07 1.79 1.57 1.44 1.33 1.25 1.19 1.13 1.16 1.25 1.30 1.25 1.26 1.33 1.42 1.52 1.58 1.60 1.61 1.56 1.57 1.63 1.70 1.67
1.09 1.10 1.19 1.32 1.42 1.51 1.82 2.10 2.15 2.24 2.31 2.35 2.39 2.41 2.41 2.29 2.20 2.05 1.88 1.63 1.46 1.30 1.18 1.06 1.00 0.99 0.97 0.96 0.95 1.01 1.02 1.00 1.05 1.14 1.27 1.36 1.44 1.57 1.61 1.67 1.70 1.70 1.70
1.24 1.19 1.21 1.22 1.29 1.36 1.48 1.71 1.90 1.90 1.96 2.04 1.99 1.89 1.91 1.85 1.80 1.72 1.63 1.52 1.45 1.34 1.19 1.04 0.99 0.97 0.92 0.86 0.86 0.86 0.85 0.90 0.92 0.92 1.01 1.13 1.19 1.30 1.38 1.45 1.49 1.58 1.62
1.20 1.13 1.10 1.04 1.09 1.20 1.29 1.41 1.58 1.60 1.59 1.63 1.66 1.69 1.69 1.66 1.57 1.45 1.34 1.22 1.12 1.02 0.94 0.86 0.85 0.83 0.80 0.79 0.78 0.74 0.72 0.72 0.74 0.77 0.83 0.90 0.94 1.03 1.07 1.15 1.23 1.30 1.37
1.34 1.22 1.10 1.01 1.04 1.15 1.19 1.24 1.35 1.45 1.47 1.44 1.44 1.52 1.47 1.42 1.29 1.21 1.18 1.09 0.98 0.93 0.91 0.84 0.78 0.74 0.71 0.68 0.65 0.63 0.60 0.56 0.58 0.61 0.66 0.71 0.76 0.79 0.80 0.85 0.91 0.99 1.09
1.44 1.26 1.18 1.11 1.10 1.16 1.16 1.18 1.21 1.27 1.33 1.36 1.41 1.40 1.34 1.25 1.19 1.06 0.93 0.86 0.80 0.86 0.91 0.81 0.73 0.64 0.61 0.59 0.60 0.60 0.56 0.50 0.48 0.48 0.52 0.56 0.57 0.56 0.59 0.62 0.68 0.77 0.94
1.34 1.20 1.17 1.21 1.17 1.13 1.11 1.10 1.16 1.16 1.26 1.30 1.30 1.27 1.22 1.17 1.11 1.03 0.94 0.81 0.73 0.70 0.73 0.68 0.63 0.58 0.53 0.50 0.51 0.52 0.50 0.48 0.43 0.40 0.40 0.41 0.43 0.46 0.46 0.46 0.54 0.68 0.86
1.23 1.16 1.15 1.21 1.17 1.11 1.06 1.01 1.06 1.10 1.17 1.21 1.18 1.14 1.10 1.12 1.05 0.98 0.94 0.84 0.73 0.67 0.66 0.65 0.62 0.57 0.45 0.43 0.42 0.39 0.43 0.45 0.45 0.41 0.34 0.32 0.33 0.36 0.38 0.40 0.47 0.57 0.68
1.42 1.43 1.45 1.42 1.30 1.17 1.07 1.05 1.09 1.13 1.17 1.21 1.14 1.13 1.10 1.05 0.99 0.83 0.79 0.78 0.74 0.63 0.58 0.55 0.53 0.53 0.49 0.43 0.37 0.36 0.43 0.48 0.49 0.45 0.41 0.34 0.29 0.36 0.38 0.40 0.43 0.47 0.50
1.71 1.72 1.67 1.52 1.38 1.26 1.19 1.13 1.09 1.14 1.21 1.18 1.10 1.01 1.00 0.95 0.89 0.84 0.77 0.71 0.68 0.63 0.61 0.58 0.53 0.50 0.46 0.43 0.40 0.38 0.39 0.47 0.48 0.44 0.44 0.45 0.44 0.41 0.41 0.39 0.42 0.46 0.52
1.68 1.58 1.50 1.42 1.34 1.23 1.16 1.07 1.04 1.02 1.05 1.01 0.94 0.85 0.84 0.90 0.91 0.87 0.80 0.73 0.67 0.64 0.59 0.57 0.52 0.51 0.46 0.41 0.37 0.36 0.38 0.43 0.39 0.34 0.36 0.37 0.39 0.38 0.40 0.41 0.46 0.48 0.52
1.34 1.35 1.32 1.25 1.19 1.10 0.99 0.93 0.94 0.94 0.92 0.89 0.87 0.76 0.73 0.80 0.86 0.82 0.76 0.66 0.62 0.60 0.52 0.51 0.52 0.51 0.49 0.40 0.34 0.34 0.34 0.37 0.34 0.33 0.32 0.32 0.30 0.29 0.30 0.35 0.48 0.57 0.54
1.13 1.16 1.22 1.21 1.08 0.90 0.84 0.86 0.86 0.85 0.74 0.72 0.77 0.76 0.73 0.72 0.72 0.72 0.74 0.66 0.60 0.59 0.56 0.55 0.55 0.53 0.48 0.40 0.35 0.34 0.33 0.33 0.34 0.35 0.35 0.33 0.27 0.23 0.24 0.31 0.42 0.48 0.45
0.98 0.99 1.03 0.99 0.87 0.80 0.82 0.85 0.82 0.73 0.67 0.72 0.79 0.77 0.74 0.63 0.63 0.73 0.75 0.68 0.61 0.57 0.56 0.56 0.57 0.52 0.48 0.42 0.37 0.36 0.33 0.32 0.32 0.34 0.32 0.30 0.27 0.24 0.24 0.27 0.33 0.35 0.43
0.81 0.83 0.81 0.80 0.82 0.83 0.86 0.86 0.79 0.69 0.70 0.74 0.76 0.75 0.69 0.66 0.66 0.71 0.73 0.69 0.63 0.54 0.50 0.52 0.54 0.49 0.43 0.38 0.33 0.32 0.30 0.29 0.29 0.30 0.28 0.27 0.29 0.30 0.37 0.38 0.36 0.42 0.58
0.69 0.69 0.70 0.70 0.75 0.75 0.73 0.71 0.63 0.62 0.71 0.75 0.72 0.71 0.73 0.72 0.66 0.63 0.59 0.58 0.54 0.48 0.44 0.45 0.45 0.41 0.37 0.29 0.23 0.25 0.26 0.27 0.29 0.30 0.33 0.41 0.45 0.47 0.49 0.53 0.58 0.60 0.64
0.67 0.68 0.69 0.69 0.66 0.65 0.62 0.59 0.59 0.64 0.71 0.68 0.63 0.63 0.67 0.67 0.63 0.52 0.45 0.41 0.35 0.27 0.27 0.29 0.28 0.29 0.26 0.20 0.20 0.23 0.25 0.23 0.24 0.28 0.40 0.56 0.61 0.62 0.60 0.59 0.59 0.61 0.60
0.61 0.64 0.60 0.60 0.60 0.56 0.55 0.56 0.55 0.55 0.61 0.61 0.56 0.53 0.55 0.54 0.49 0.44 0.38 0.30 0.20 0.16 0.13 0.12 0.13 0.14 0.16 0.14 0.12 0.15 0.20 0.20 0.24 0.31 0.52 0.61 0.64 0.66 0.59 0.55 0.50 0.49 0.50

GEFSMW_prec_meanprecacc_186.txt.gz
Total_Precipitation_Accumulation
1.36 1.77 1.94 2.05 2.35 2.54 2.70 2.65 2.77 3.03 3.25 3.62 3.59 3.74 4.11 4.47 4.62 4.81 4.85 4.71 4.57 4.53 4.38 4.28 4.30 4.13 3.99 3.79 3.65 3.53 3.41 3.09 2.85 2.75 2.40 1.93 1.66 1.53 1.43 1.41 1.39 1.35 1.40
1.26 1.70 1.92 2.24 2.45 2.56 2.77 2.88 2.95 3.31 3.79 4.35 4.85 5.22 5.53 5.53 5.69 5.69 5.59 5.29 5.07 4.90 4.69 4.65 4.51 4.26 4.08 3.86 3.65 3.52 3.43 3.15 2.96 2.94 2.86 2.27 1.82 1.43 1.13 1.15 1.18 1.20 1.28
1.35 1.57 1.80 2.09 2.34 2.53 2.76 2.95 3.27 3.85 4.67 5.16 5.60 6.14 6.45 6.20 5.95 5.69 5.62 5.53 5.43 5.29 5.08 4.96 4.64 4.38 4.10 3.79 3.51 3.33 3.26 3.17 3.06 2.89 2.97 2.59 2.08 1.64 1.29 1.09 1.01 1.08 1.21
1.36 1.55 1.76 2.02 2.32 2.66 2.78 2.99 3.54 4.23 4.87 5.39 5.98 6.54 6.81 6.87 6.70 6.18 5.70 5.28 4.97 4.70 4.53 4.46 4.25 3.98 3.69 3.48 3.21 3.01 2.91 3.01 2.89 2.78 2.59 2.41 2.12 1.88 1.57 1.25 1.09 1.07 1.12
1.33 1.49 1.69 1.86 2.02 2.34 2.79 3.14 3.70 4.34 4.97 5.65 6.36 6.80 7.06 7.06 6.68 5.90 5.15 4.64 4.32 3.99 3.70 3.58 3.46 3.28 3.07 2.88 2.79 2.74 2.64 2.60 2.51 2.39 2.31 2.24 2.12 1.86 1.63 1.40 1.19 1.14 1.14
1.23 1.29 1.48 1.62 1.91 2.23 2.60 3.08 3.40 3.99 4.66 5.23 5.77 5.95 6.12 6.08 5.69 5.25 4.77 4.36 3.82 3.32 2.91 2.70 2.59 2.48 2.35 2.31 2.31 2.32 2.29 2.26 2.24 2.20 2.11 2.04 2.02 1.88 1.76 1.53 1.34 1.32 1.23
1.18 1.39 1.65 1.61 1.85 2.15 2.53 2.95 3.34 3.71 4.19 4.69 5.16 5.40 5.56 5.43 4.96 4.51 4.08 3.63 3.13 2.70 2.34 2.13 2.06 2.00 1.95 1.92 1.97 2.00 1.97 1.93 1.96 1.96 1.91 1.89 1.86 1.81 1.78 1.81 1.68 1.43 1.19
1.23 1.32 1.47 1.54 1.78 2.01 2.27 2.65 2.98 3.33 3.53 3.74 4.10 4.35 4.50 4.39 4.04 3.54 3.05 2.74 2.48 2.19 1.96 1.79 1.71 1.62 1.52 1.51 1.59 1.66 1.71 1.68 1.73 1.76 1.82 1.79 1.73 1.68 1.64 1.68 1.75 1.70 1.49
1.11 1.18 1.30 1.44 1.63 1.92 2.27 2.54 2.65 2.84 2.99 3.16 3.24 3.27 3.37 3.27 3.01 2.70 2.39 2.11 1.86 1.63 1.48 1.38 1.31 1.26 1.22 1.25 1.34 1.41 1.37 1.37 1.44 1.53 1.63 1.67 1.70 1.71 1.65 1.66 1.71 1.78 1.73
1.13 1.14 1.22 1.35 1.46 1.54 1.87 2.18 2.21 2.31 2.37 2.41 2.48 2.47 2.48 2.36 2.26 2.10 1.91 1.66 1.50 1.34 1.22 1.13 1.07 1.06 1.04 1.05 1.06 1.12 1.12 1.10 1.14 1.26 1.38 1.46 1.54 1.67 1.69 1.74 1.76 1.77 1.77
1.28 1.22 1.23 1.25 1.34 1.42 1.55 1.79 1.96 1.97 2.01 2.08 2.02 1.91 1.94 1.91 1.88 1.79 1.68 1.56 1.48 1.38 1.23 1.08 1.05 1.01 0.97 0.92 0.93 0.94 0.94 0.99 1.01 1.03 1.11 1.22 1.28 1.38 1.46 1.51 1.53 1.62 1.66
1.25 1.17 1.13 1.08 1.14 1.28 1.36 1.46 1.64 1.69 1.69 1.69 1.69 1.73 1.74 1.72 1.67 1.52 1.39 1.27 1.15 1.05 0.97 0.90 0.90 0.85 0.82 0.81 0.80 0.77 0.76 0.78 0.81 0.84 0.91 0.98 1.02 1.10 1.13 1.20 1.27 1.33 1.41
1.39 1.26 1.14 1.07 1.11 1.21 1.24 1.27 1.39 1.55 1.57 1.50 1.48 1.57 1.54 1.47 1.39 1.31 1.23 1.13 1.00 0.95 0.93 0.88 0.81 0.76 0.72 0.70 0.67 0.66 0.63 0.61 0.63 0.68 0.74 0.81 0.83 0.86 0.86 0.91 0.96 1.04 1.16
1.47 1.29 1.21 1.16 1.16 1.21 1.19 1.20 1.25 1.34 1.43 1.45 1.46 1.44 1.39 1.32 1.29 1.17 0.99 0.91 0.84 0.88 0.93 0.85 0.76 0.67 0.64 0.61 0.63 0.65 0.62 0.57 0.56 0.57 0.62 0.65 0.65 0.63 0.66 0.68 0.73 0.82 1.00
1.38 1.24 1.21 1.26 1.23 1.17 1.14 1.12 1.19 1.20 1.35 1.39 1.34 1.30 1.28 1.24 1.22 1.13 1.01 0.87 0.78 0.74 0.76 0.72 0.67 0.61 0.56 0.53 0.55 0.56 0.55 0.53 0.49 0.47 0.48 0.48 0.51 0.53 0.53 0.53 0.60 0.73 0.91
1.26 1.19 1.18 1.24 1.19 1.13 1.09 1.04 1.09 1.13 1.22 1.29 1.23 1.18 1.15 1.19 1.14 1.08 1.02 0.92 0.80 0.72 0.71 0.70 0.66 0.60 0.49 0.48 0.46 0.43 0.45 0.48 0.49 0.45 0.40 0.37 0.37 0.41 0.42 0.44 0.51 0.62 0.73
1.44 1.45 1.47 1.44 1.32 1.19 1.10 1.08 1.12 1.17 1.21 1.26 1.18 1.17 1.14 1.10 1.05 0.91 0.86 0.86 0.81 0.69 0.63 0.60 0.56 0.56 0.52 0.47 0.40 0.40 0.46 0.51 0.52 0.49 0.46 0.38 0.32 0.39 0.42 0.43 0.47 0.51 0.53
1.73 1.74 1.68 1.54 1.40 1.27 1.21 1.16 1.12 1.18 1.24 1.21 1.13 1.05 1.04 0.99 0.93 0.89 0.81 0.75 0.74 0.68 0.65 0.62 0.56 0.51 0.47 0.45 0.43 0.42 0.42 0.50 0.51 0.48 0.47 0.48 0.47 0.44 0.44 0.42 0.45 0.49 0.55
1.69 1.59 1.52 1.43 1.35 1.25 1.19 1.10 1.07 1.05 1.07 1.04 0.98 0.89 0.89 0.94 0.95 0.91 0.85 0.76 0.71 0.67 0.62 0.60 0.54 0.52 0.47 0.42 0.39 0.40 0.42 0.46 0.42 0.37 0.38 0.38 0.42 0.42 0.43 0.44 0.48 0.51 0.56
1.36 1.36 1.33 1.26 1.20 1.13 1.03 0.96 0.97 0.97 0.94 0.92 0.91 0.80 0.78 0.85 0.90 0.87 0.80 0.69 0.65 0.63 0.55 0.53 0.54 0.53 0.50 0.41 0.36 0.37 0.36 0.40 0.36 0.35 0.35 0.34 0.31 0.31 0.32 0.38 0.52 0.61 0.58
1.15 1.17 1.23 1.23 1.10 0.94 0.87 0.89 0.88 0.87 0.76 0.75 0.80 0.80 0.77 0.77 0.77 0.77 0.78 0.69 0.62 0.61 0.58 0.56 0.57 0.55 0.50 0.42 0.36 0.35 0.34 0.34 0.36 0.37 0.37 0.35 0.28 0.25 0.26 0.33 0.45 0.51 0.49
1.00 1.01 1.06 1.02 0.91 0.83 0.85 0.87 0.84 0.75 0.70 0.75 0.83 0.81 0.77 0.67 0.67 0.77 0.80 0.72 0.64 0.60 0.59 0.59 0.59 0.54 0.50 0.43 0.38 0.37 0.34 0.32 0.33 0.35 0.34 0.32 0.29 0.25 0.26 0.29 0.35 0.37 0.46
0.83 0.86 0.85 0.84 0.85 0.85 0.88 0.88 0.80 0.71 0.73 0.78 0.82 0.81 0.74 0.70 0.70 0.74 0.76 0.72 0.65 0.58 0.55 0.55 0.56 0.51 0.44 0.39 0.34 0.33 0.31 0.30 0.30 0.31 0.30 0.30 0.31 0.32 0.38 0.39 0.37 0.43 0.60
0.73 0.73 0.74 0.73 0.78 0.77 0.75 0.73 0.65 0.64 0.74 0.80 0.78 0.77 0.78 0.76 0.70 0.65 0.61 0.60 0.56 0.51 0.48 0.47 0.47 0.42 0.38 0.31 0.25 0.26 0.28 0.28 0.30 0.31 0.35 0.43 0.47 0.48 0.50 0.54 0.59 0.63 0.67
0.70 0.72 0.73 0.72 0.69 0.68 0.64 0.61 0.61 0.67 0.75 0.74 0.70 0.69 0.73 0.70 0.64 0.54 0.46 0.43 0.38 0.29 0.30 0.31 0.30 0.30 0.27 0.23 0.23 0.25 0.27 0.24 0.25 0.29 0.41 0.57 0.62 0.63 0.61 0.60 0.61 0.64 0.63
0.63 0.67 0.64 0.64 0.63 0.59 0.57 0.59 0.60 0.59 0.65 0.65 0.60 0.57 0.59 0.57 0.50 0.45 0.39 0.32 0.23 0.19 0.15 0.14 0.15 0.16 0.19 0.17 0.15 0.18 0.21 0.21 0.24 0.32 0.52 0.62 0.65 0.67 0.61 0.57 0.54 0.53 0.53